Weather History for KTAZ - February, 2013

Change the Weather History Date:

Saturday, February 16, 2013

  Actual Average (KSPI) Record (KSPI)
Temperature  
Mean Temperature 22 °F 31 °F  
Max Temperature 30 °F 40 °F 66 °F (1911)
Min Temperature 15 °F 23 °F -11 °F (2007)
Degree Days  
Heating Degree Days 42 34  
Month to date heating degree days 571  
Since 1 July heating degree days 3897  
Cooling Degree Days 0 0  
Month to date cooling degree days 0  
Year to date cooling degree days 0  
Moisture  
Dew Point 12 °F    
Average Humidity 66    
Maximum Humidity 86    
Minimum Humidity 44    
Precipitation  
Precipitation 0.00 in 0.06 in 1.89 in (1976)
Month to date precipitation 0.96  
Year to date precipitation 2.78  
Snow  
Snow 0.00 in 0.20 in 4.50 in (1993)
Month to date snowfall 3.4  
Since 1 July snowfall 16.0  
Snow Depth -    
Sea Level Pressure  
Sea Level Pressure 30.18 in    
Wind  
Wind Speed 10 mph (NW)    
Max Wind Speed 18 mph    
Max Gust Speed 21 mph    
Visibility 10 miles    
Events      
T = Trace of Precipitation, MM = Missing Value Source: NWS Daily Summary

Daily Weather History Graph

Daily Weather History Graph

Search for Another Location

Airport or City:

Trip Planner

Search our weather history database for the weather conditions in past years. The results will help you decide how hot, cold, wet, or windy it might be!

Date:

Astronomy

Feb. 16, 2013 Rise Set
Actual Time 6:47 AM CST 5:35 PM CST
Civil Twilight 6:20 AM CST 6:02 PM CST
Nautical Twilight 5:48 AM CST 6:34 PM CST
Astronomical Twilight 5:17 AM CST 7:05 PM CST
Moon 10:02 AM CST (2/16) No Moon Set
Length of Visible Light 11h 42m
Length of Day
10h 47m
Waxing Crescent, 39% of the Moon is Illuminated
Feb 16
Waxing Crescent
Feb 17
First Quarter
Feb 25
Full
Mar 4
Last Quarter
Mar 11
New

Hourly Weather History & Observations

Time (CST) Temp. Windchill Dew Point Humidity Pressure Visibility Wind Dir Wind Speed Gust Speed Precip Events Conditions
12:15 AM 21.2 °F 10.9 °F 15.8 °F 80% 30.21 in 10.0 mi NNW 9.2 mph - N/A   Clear
12:35 AM 21.2 °F 10.9 °F 14.0 °F 74% 30.20 in 10.0 mi NW 9.2 mph - N/A   Clear
12:55 AM 21.2 °F 12.6 °F 14.0 °F 74% 30.20 in 10.0 mi NW 6.9 mph - N/A   Clear
1:15 AM 21.2 °F 11.7 °F 14.0 °F 74% 30.20 in 10.0 mi NW 8.1 mph - N/A   Clear
1:35 AM 21.2 °F 10.9 °F 14.0 °F 74% 30.20 in 10.0 mi NW 9.2 mph - N/A   Clear
1:55 AM 21.2 °F 9.5 °F 14.0 °F 74% 30.19 in 10.0 mi NW 11.5 mph - N/A   Clear
2:15 AM 21.2 °F 8.9 °F 14.0 °F 74% 30.19 in 10.0 mi NNW 12.7 mph - N/A   Clear
2:35 AM 19.4 °F 7.9 °F 14.0 °F 80% 30.19 in 10.0 mi NNW 10.4 mph - N/A   Clear
2:55 AM 19.4 °F 9.5 °F 14.0 °F 80% 30.19 in 10.0 mi NW 8.1 mph - N/A   Clear
3:15 AM 19.4 °F 8.6 °F 14.0 °F 80% 30.19 in 10.0 mi NW 9.2 mph - N/A   Clear
3:35 AM 19.4 °F 9.5 °F 14.0 °F 80% 30.19 in 10.0 mi NW 8.1 mph - N/A   Clear
3:55 AM 19.4 °F 8.6 °F 14.0 °F 80% 30.19 in 10.0 mi NNW 9.2 mph - N/A   Clear
4:15 AM 19.4 °F 9.5 °F 12.2 °F 74% 30.19 in 10.0 mi NNW 8.1 mph - N/A   Mostly Cloudy
4:35 AM 19.4 °F 6.0 °F 12.2 °F 74% 30.19 in 10.0 mi NNW 13.8 mph - N/A   Mostly Cloudy
4:55 AM 19.4 °F 7.9 °F 12.2 °F 74% 30.20 in 10.0 mi NW 10.4 mph - N/A   Scattered Clouds
5:15 AM 17.6 °F 5.7 °F 10.4 °F 73% 30.20 in 10.0 mi NW 10.4 mph - N/A   Clear
5:35 AM 17.6 °F 4.3 °F 10.4 °F 73% 30.20 in 10.0 mi NW 12.7 mph - N/A   Clear
5:55 AM 17.6 °F 5.7 °F 10.4 °F 73% 30.21 in 10.0 mi NNW 10.4 mph - N/A   Clear
6:15 AM 17.6 °F 5.0 °F 10.4 °F 73% 30.20 in 10.0 mi NNW 11.5 mph - N/A   Clear
6:35 AM 15.8 °F 2.7 °F 10.4 °F 79% 30.20 in 10.0 mi NNW 11.5 mph - N/A   Clear
6:55 AM 15.8 °F 3.4 °F 10.4 °F 79% 30.21 in 10.0 mi NNW 10.4 mph - N/A   Clear
7:15 AM 17.6 °F 5.7 °F 10.4 °F 73% 30.22 in 10.0 mi NNW 10.4 mph - N/A   Clear
7:35 AM 17.6 °F 4.3 °F 10.4 °F 73% 30.22 in 10.0 mi NW 12.7 mph - N/A   Clear
7:55 AM 17.6 °F 4.3 °F 8.6 °F 68% 30.22 in 10.0 mi NW 12.7 mph - N/A   Clear
8:15 AM 17.6 °F 3.7 °F 10.4 °F 73% 30.23 in 10.0 mi NNW 13.8 mph 17.3 mph N/A   Clear
8:35 AM 19.4 °F 7.2 °F 10.4 °F 68% 30.23 in 10.0 mi NW 11.5 mph - N/A   Clear
8:55 AM 19.4 °F 7.9 °F 8.6 °F 63% 30.23 in 10.0 mi NW 10.4 mph - N/A   Clear
9:15 AM 19.4 °F 8.6 °F 8.6 °F 63% 30.23 in 10.0 mi NW 9.2 mph - N/A   Clear
9:35 AM 21.2 °F 9.5 °F 8.6 °F 58% 30.22 in 10.0 mi NNW 11.5 mph - N/A   Clear
12:15 PM 26.6 °F 15.2 °F 10.4 °F 51% 30.20 in 10.0 mi WNW 13.8 mph 18.4 mph N/A   Clear
12:35 PM 26.6 °F 15.2 °F 10.4 °F 51% 30.19 in 10.0 mi West 13.8 mph 18.4 mph N/A   Clear
12:55 PM 28.4 °F 18.0 °F 12.2 °F 51% 30.18 in 10.0 mi West 12.7 mph 20.7 mph N/A   Clear
1:15 PM 28.4 °F 18.0 °F 10.4 °F 47% 30.17 in 10.0 mi WNW 12.7 mph 19.6 mph N/A   Clear
1:35 PM 30.2 °F 20.2 °F 12.2 °F 47% 30.16 in 10.0 mi WNW 12.7 mph 19.6 mph N/A   Clear
1:55 PM 30.2 °F 19.8 °F 12.2 °F 47% 30.16 in 10.0 mi WNW 13.8 mph 19.6 mph N/A   Clear
2:15 PM 30.2 °F 20.2 °F 12.2 °F 47% 30.15 in 10.0 mi West 12.7 mph 19.6 mph N/A   Clear
2:35 PM 30.2 °F 19.8 °F 12.2 °F 47% 30.14 in 10.0 mi WNW 13.8 mph 19.6 mph N/A   Clear
2:55 PM 30.2 °F 19.8 °F 10.4 °F 44% 30.14 in 10.0 mi West 13.8 mph 18.4 mph N/A   Scattered Clouds
3:15 PM 30.2 °F 19.3 °F 10.4 °F 44% 30.14 in 10.0 mi WNW 15.0 mph 18.4 mph N/A   Clear
3:35 PM 30.2 °F 18.1 °F 10.4 °F 44% 30.14 in 10.0 mi WNW 18.4 mph - N/A   Clear
3:55 PM 30.2 °F 19.8 °F 10.4 °F 44% 30.14 in 10.0 mi WNW 13.8 mph 19.6 mph N/A   Clear
4:15 PM 30.2 °F 21.3 °F 10.4 °F 44% 30.14 in 10.0 mi West 10.4 mph 20.7 mph N/A   Clear
4:35 PM 30.2 °F 19.3 °F 10.4 °F 44% 30.14 in 10.0 mi WNW 15.0 mph - N/A   Clear
4:55 PM 28.4 °F 16.6 °F 10.4 °F 47% 30.14 in 10.0 mi WNW 16.1 mph 20.7 mph N/A   Clear
5:15 PM 28.4 °F 19.1 °F 12.2 °F 51% 30.15 in 10.0 mi WNW 10.4 mph - N/A   Clear
5:35 PM 28.4 °F 19.1 °F 12.2 °F 51% 30.15 in 10.0 mi WNW 10.4 mph 16.1 mph N/A   Clear
5:55 PM 26.6 °F 17.5 °F 12.2 °F 55% 30.15 in 10.0 mi WNW 9.2 mph - N/A   Clear
6:15 PM 26.6 °F 18.2 °F 14.0 °F 59% 30.16 in 10.0 mi NW 8.1 mph - N/A   Clear
6:35 PM 26.6 °F 18.2 °F 12.2 °F 55% 30.16 in 10.0 mi NW 8.1 mph - N/A   Clear
6:55 PM 26.6 °F 20.0 °F 12.2 °F 55% 30.16 in 10.0 mi WNW 5.8 mph - N/A   Clear
7:15 PM 26.6 °F 20.0 °F 14.0 °F 59% 30.16 in 10.0 mi WNW 5.8 mph - N/A   Clear
7:35 PM 24.8 °F 20.5 °F 14.0 °F 64% 30.16 in 10.0 mi WNW 3.5 mph - N/A   Clear
7:55 PM 24.8 °F 20.5 °F 15.8 °F 69% 30.16 in 10.0 mi WNW 3.5 mph - N/A   Clear
8:15 PM 24.8 °F 20.5 °F 14.0 °F 64% 30.16 in 10.0 mi WNW 3.5 mph - N/A   Clear
8:35 PM 24.8 °F 20.5 °F 14.0 °F 64% 30.17 in 10.0 mi NW 3.5 mph - N/A   Clear
8:55 PM 23.0 °F - 15.8 °F 74% 30.17 in 10.0 mi Calm Calm - N/A   Clear
9:15 PM 23.0 °F - 15.8 °F 74% 30.17 in 10.0 mi Calm Calm - N/A   Clear
9:35 PM 21.2 °F - 14.0 °F 74% 30.17 in 10.0 mi Calm Calm - N/A   Clear
9:55 PM 19.4 °F - 15.8 °F 86% 30.18 in 10.0 mi Calm Calm - N/A   Clear
10:15 PM 21.2 °F - 15.8 °F 80% 30.17 in 10.0 mi Calm Calm - N/A   Clear
10:35 PM 21.2 °F - 15.8 °F 80% 30.17 in 10.0 mi Calm Calm - N/A   Clear
10:55 PM 21.2 °F 16.4 °F 15.8 °F 80% 30.16 in 10.0 mi North 3.5 mph - N/A   Clear
11:15 PM 21.2 °F 16.4 °F 15.8 °F 80% 30.16 in 10.0 mi North 3.5 mph - N/A   Clear
11:35 PM 19.4 °F 14.3 °F 15.8 °F 86% 30.16 in 10.0 mi North 3.5 mph - N/A   Clear
11:55 PM 19.4 °F 11.5 °F 14.0 °F 80% 30.17 in 10.0 mi NNE 5.8 mph - N/A   Clear